Forks, WA

2:49 AM PST on December 04, 2016 (GMT -0800)
Quillayute

Weather History for KUIL - August, 2014

Change the Weather History Date:

Sunday, August 24, 2014

  Actual Average Record
Temperature  
Mean Temperature 59 °F 59 °F  
Max Temperature 67 °F 69 °F 91 °F (2016)
Min Temperature 51 °F 50 °F 39 °F (1973)
Degree Days  
Heating Degree Days 6 6  
Month to date heating degree days 90 132  
Since 1 June heating degree days 475 620  
Since 1 July heating degree days 226 326  
Cooling Degree Days 0 0  
Month to date cooling degree days 8 0  
Year to date cooling degree days 18 11  
Since 1 June cooling degree days 14 10  
Growing Degree Days 8 (Base 50)    
Moisture  
Dew Point 55 °F    
Average Humidity 89    
Maximum Humidity 100    
Minimum Humidity 78    
Precipitation  
Precipitation 0.00 in 0.09 in 1.10 in (2008)
Month to date precipitation 0.52 1.77  
Year to date precipitation 55.68 56.00  
Sea Level Pressure  
Sea Level Pressure 29.99 in    
Wind  
Wind Speed 3 mph (WSW)    
Max Wind Speed 12 mph    
Max Gust Speed 14 mph    
Visibility 3 miles    
Events Fog    
T = Trace of Precipitation, MM = Missing Value Source: NWS Daily Summary

Daily Weather History Graph

Daily Weather History Graph

Search for Another Location

Airport or City:

Trip Planner

Search our weather history database for the weather conditions in past years. The results will help you decide how hot, cold, wet, or windy it might be!

Date:

Astronomy

Aug. 24, 2014 Rise Set
Actual Time 6:25 AM PDT 8:14 PM PDT
Civil Twilight 5:52 AM PDT 8:47 PM PDT
Nautical Twilight 5:12 AM PDT 9:27 PM PDT
Astronomical Twilight 4:27 AM PDT 10:11 PM PDT
Moon 5:42 AM PDT (8/24) 7:33 PM PDT (8/24)
Length of Visible Light 14h 54m
Length of Day
13h 48m
Waning Crescent, 1% of the Moon is Illuminated
Aug 24
Waning Crescent
Aug 25
New
Sep 2
First Quarter
Sep 8
Full
Sep 15
Last Quarter

Hourly Weather History & Observations

Time (PDT) Temp. Dew Point Humidity Pressure Visibility Wind Dir Wind Speed Gust Speed Precip Events Conditions
12:17 AM 55.0 °F 54.0 °F 96% 30.05 in 1.8 mi Calm Calm - N/A   Overcast
12:53 AM 55.0 °F 54.0 °F 96% 30.04 in 2.0 mi East 3.5 mph - N/A   Overcast
1:28 AM 55.0 °F 54.0 °F 96% 30.04 in 1.5 mi Calm Calm - N/A   Overcast
1:53 AM 55.0 °F 54.0 °F 96% 30.04 in 1.2 mi Calm Calm - N/A   Overcast
2:53 AM 55.0 °F 54.0 °F 96% 30.03 in 1.0 mi Calm Calm - N/A   Overcast
3:32 AM 55.9 °F 55.0 °F 97% 30.02 in 1.8 mi Calm Calm - N/A   Overcast
3:53 AM 55.0 °F 55.0 °F 100% 30.02 in 1.2 mi Calm Calm - N/A   Overcast
4:19 AM 55.9 °F 55.0 °F 97% 30.01 in 1.0 mi ESE 3.5 mph - N/A   Overcast
4:53 AM 55.9 °F 55.0 °F 97% 30.00 in 1.0 mi Calm Calm - N/A   Overcast
5:05 AM 55.9 °F 55.0 °F 97% 30.00 in 1.0 mi Calm Calm - N/A   Overcast
5:14 AM 55.9 °F 55.0 °F 97% 30.00 in 0.8 mi Calm Calm - N/A   Overcast
5:27 AM 55.9 °F 55.0 °F 97% 30.00 in 1.0 mi Calm Calm - N/A   Overcast
5:53 AM 55.9 °F 55.9 °F 100% 30.00 in 1.0 mi Calm Calm - N/A   Overcast
6:00 AM 55.9 °F 55.9 °F 100% 29.99 in 1.0 mi Calm Calm - N/A   Overcast
6:10 AM 55.9 °F 55.0 °F 97% 29.99 in 1.2 mi Calm Calm - N/A   Overcast
6:53 AM 55.9 °F 55.0 °F 97% 29.99 in 1.5 mi East 3.5 mph - N/A   Overcast
7:09 AM 55.9 °F 55.0 °F 97% 29.99 in 2.0 mi ESE 3.5 mph - N/A   Overcast
7:15 AM 55.9 °F 55.0 °F 97% 29.99 in 1.2 mi Calm Calm - N/A   Overcast
7:30 AM 55.9 °F 55.9 °F 100% 29.99 in 1.5 mi Calm Calm - N/A   Overcast
7:43 AM 55.9 °F 55.9 °F 100% 29.99 in 2.5 mi ESE 3.5 mph - N/A   Overcast
7:53 AM 55.9 °F 55.9 °F 100% 29.99 in 2.0 mi Calm Calm - N/A   Overcast
7:57 AM 55.9 °F 55.9 °F 100% 29.99 in 1.2 mi Calm Calm - N/A   Overcast
8:07 AM 57.0 °F 55.9 °F 96% 29.99 in 0.5 mi Calm Calm - N/A Fog Fog
8:53 AM 57.0 °F 55.9 °F 96% 30.00 in 0.5 mi Calm Calm - N/A Fog Fog
9:39 AM 57.9 °F 57.9 °F 100% 30.00 in 1.5 mi South 3.5 mph - N/A   Overcast
9:53 AM 57.9 °F 57.9 °F 100% 30.01 in 1.2 mi Variable 3.5 mph - N/A   Overcast
10:09 AM 57.9 °F 57.0 °F 97% 30.00 in 2.0 mi WNW 3.5 mph - N/A   Overcast
10:11 AM 57.9 °F 57.0 °F 97% 30.00 in 3.0 mi WNW 4.6 mph - N/A   Overcast
10:53 AM 61.0 °F 57.9 °F 90% 29.99 in 8.0 mi South 3.5 mph - N/A   Overcast
11:53 AM 62.1 °F 57.9 °F 86% 29.99 in 8.0 mi Variable 3.5 mph - N/A   Overcast
12:27 PM 63.0 °F 57.9 °F 84% 29.98 in 8.0 mi Variable 3.5 mph - N/A   Overcast
12:53 PM 64.0 °F 59.0 °F 84% 29.98 in 8.0 mi WSW 4.6 mph - N/A   Overcast
1:53 PM 64.0 °F 57.9 °F 80% 29.98 in 7.0 mi WSW 9.2 mph - N/A   Overcast
2:28 PM 64.9 °F 57.9 °F 78% 29.97 in 8.0 mi WSW 8.1 mph - N/A   Scattered Clouds
2:53 PM 64.9 °F 57.9 °F 78% 29.97 in 8.0 mi WSW 6.9 mph - N/A   Clear
3:53 PM 64.0 °F 57.0 °F 78% 29.96 in 7.0 mi SW 9.2 mph - N/A   Clear
4:53 PM 64.0 °F 57.9 °F 80% 29.95 in 8.0 mi WSW 9.2 mph - N/A   Clear
5:53 PM 62.1 °F 57.0 °F 84% 29.96 in 8.0 mi WSW 9.2 mph - N/A   Clear
6:53 PM 60.8 °F 57.2 °F 88% 29.96 in 8.0 mi West 5.8 mph - N/A   Clear
7:53 PM 57.9 °F 55.9 °F 93% 29.97 in 8.0 mi WNW 4.6 mph - N/A   Clear
8:53 PM 55.9 °F 54.0 °F 93% 29.99 in 9.0 mi Calm Calm - N/A   Clear
9:25 PM 55.0 °F 54.0 °F 96% 29.99 in 2.5 mi Calm Calm - N/A   Scattered Clouds
9:30 PM 55.0 °F 55.0 °F 100% 29.99 in 1.2 mi Calm Calm - N/A   Mostly Cloudy
9:39 PM 55.0 °F 55.0 °F 100% 29.99 in 0.2 mi Calm Calm - N/A Fog Fog
9:53 PM 55.0 °F 54.0 °F 96% 30.00 in 0.2 mi Calm Calm - N/A Fog Fog
10:33 PM 54.0 °F 54.0 °F 100% 29.99 in 0.2 mi Calm Calm - N/A Fog Fog
10:50 PM 53.6 °F 53.6 °F 100% 30.00 in 1.0 mi Calm Calm - N/A   Mist
10:53 PM 54.0 °F 53.1 °F 97% 30.00 in 1.2 mi Calm Calm - N/A   Mostly Cloudy
10:56 PM 54.0 °F 53.1 °F 97% 30.00 in 1.5 mi Calm Calm - N/A   Scattered Clouds
11:13 PM 52.0 °F 52.0 °F 100% 30.00 in 0.8 mi WNW 3.5 mph - N/A   Mist
11:23 PM 53.1 °F 53.1 °F 100% 30.00 in 0.2 mi Calm Calm - N/A Fog Fog
11:35 PM 53.1 °F 53.1 °F 100% 30.00 in 0.2 mi Calm Calm - N/A Fog Fog
11:50 PM 51.8 °F 51.8 °F 100% 30.00 in 0.8 mi NW 3.5 mph - N/A   Mist
11:53 PM 52.0 °F 52.0 °F 100% 30.00 in 0.8 mi Calm Calm - N/A   Mist